This is the latest recevied weather packets stored in our database for station/object lw9ero. If no packets are shown the sender has not sent any weather packets the latest 1 day(s).
| Time | Temp. | Humidity | Pressure | Rain* | Wind** | Luminosity | Snow |
|---|---|---|---|---|---|---|---|
| 1778120902 | 16.67° C | 89% | 1004.8 hPa | 0 mm | - | - | - |
| 1778120294 | 16.67° C | 89% | 1004.8 hPa | 0 mm | - | - | - |
| 1778119084 | 17.22° C | 87% | 1004.9 hPa | 0 mm | - | - | - |
| 1778118476 | 17.22° C | 88% | 1004.1 hPa | 0 mm | - | - | - |
| 1778117870 | 16.67° C | 89% | 1003.2 hPa | 0 mm | - | - | - |
| 1778117264 | 17.22° C | 89% | 1003.5 hPa | 0 mm | - | - | - |
| 1778116671 | 17.78° C | 87% | 1004.4 hPa | 0 mm | - | - | - |
| 1778116052 | 18.33° C | 90% | 1004.8 hPa | 0 mm | - | - | - |
| 1778115446 | 19.44° C | 91% | 1004.5 hPa | 0 mm | - | - | - |
| 1778114839 | 21.67° C | 95% | 1003.5 hPa | 0 mm | - | - | - |
| 1778114233 | 21.67° C | 98% | 1003.3 hPa | 0 mm | - | - | - |
| 1778113627 | 21.67° C | 98% | 1003.4 hPa | 0 mm | - | - | - |
| 1778113021 | 21.11° C | 98% | 1002.9 hPa | 0 mm | - | - | - |
| 1778112415 | 21.67° C | 98% | 1003.2 hPa | 0 mm | - | - | - |
| 1778109397 | 20.56° C | 97% | 1002.1 hPa | 0.25 mm | - | - | - |
| 1778108780 | 20.56° C | 96% | 1002.3 hPa | 0.25 mm | - | - | - |
| 1778106959 | 23.33° C | 92% | 1001 hPa | 0 mm | - | - | - |
| 1778101516 | 25° C | 84% | 1002.9 hPa | 0 mm | - | - | - |
| 1778099064 | 25° C | 85% | 1004.2 hPa | 0 mm | - | - | - |
| 1778097851 | 25.56° C | 83% | 1004.1 hPa | 0 mm | - | - | - |
| 1778093003 | 26.67° C | 82% | 1004.9 hPa | 0 mm | - | - | - |
| 1778092401 | 26.67° C | 83% | 1004.8 hPa | 0 mm | - | - | - |
* Rain latest hour (hover to see other rain measurements)
** Current wind speed in m/s (hover to see current wind gust speed)